Regional Weather Roundup
Issued by NWS

Home | Current Version | Previous Version | Text Only | Print | Product List | Glossary Off
Versions: 1 2 3 4 5 6 7 8 9 10 11 12 13 14 15 16 17 18 19 20 21 22 23 24 25 26 27

000
ASUS45 KCYS 251310
RWRWY

WYOMING REGIONAL WEATHER ROUNDUP
NATIONAL WEATHER SERVICE CHEYENNE WY
700 AM MDT THU AUG 25 2016

NOTE:  "FAIR" INDICATES FEW OR NO CLOUDS BELOW 12,000 FEET
WITH NO SIGNIFICANT WEATHER AND/OR OBSTRUCTIONS TO VISIBILITY.

WYZ001-251400-
YELLOWSTONE NATIONAL PARK

CITY           SKY/WX    TMP DP  RH WIND       PRES   REMARKS
LK YELLOWSTONE   N/A     28  28 100 CALM      30.38R
W YELLOWSTONE  NOT AVBL

$$
WYZ002>013-054>058-071-098>099-251400-
NORTHERN WYOMING

CITY           SKY/WX    TMP DP  RH WIND       PRES   REMARKS
JACKSON        FAIR      37  34  87 N6        30.31R WCI  33
CODY           FAIR      46  41  81 CALM      30.32S
GREYBULL       CLOUDY    53  39  59 W6        30.27S
WORLAND        CLOUDY    51  47  86 SW3       30.29S
SHERIDAN       FAIR      44  39  82 W5        30.31R
BUFFALO        MOCLDY    48  38  68 NW6       30.33S
GILLETTE       FAIR      47  41  80 CALM      30.31R
HULETT         FAIR      48  39  71 CALM      30.32R
NEWCASTLE      LGT RAIN  46  41  81 N7        30.29F

$$
WYZ014>020-022>026-101>103-251400-
CENTRAL WYOMING

CITY           SKY/WX    TMP DP  RH WIND       PRES   REMARKS
BIG PINEY      FAIR      36  25  64 NE3       30.33R
PINEDALE       CLOUDY    36  32  87 NW3       30.34S
DUBOIS         CLOUDY    43  37  81 E5        30.35S
LANDER         CLOUDY    49  45  86 E6        30.32S
RIVERTON       CLOUDY    49  47  93 CALM      30.34R
CASPER         CLOUDY    48  46  93 NE8       30.33R
DOUGLAS        CLOUDY    48  46  93 CALM      30.35S

$$
WYZ021-027>030-104>119-251400-
SOUTHERN WYOMING

CITY           SKY/WX    TMP DP  RH WIND       PRES   REMARKS
EVANSTON       FAIR      41  33  73 E10       30.30R
FORT BRIDGER   FAIR      40  35  83 NE7       30.34R
ROCK SPRINGS   NOT AVBL
DIXON          FAIR      38  33  81 CALM      30.31R
RAWLINS        CLOUDY    48  41  76 NE13      30.31S
SARATOGA       FAIR      36  36 100 S3        30.31S
LARAMIE        FAIR      44  42  93 CALM      30.31S
CHEYENNE       FAIR      47  43  86 N13       30.31R
TORRINGTON     CLOUDY    52  44  74 NE12      30.27R
PINE BLUFFS    PTSUNNY   37  37 100 W7        30.29R WCI  32

$$




USA.gov is the U.S. government's official web portal to all federal, state and local government web resources and services.